User: anonymous   Login
Location: Sabalos
(43.2860°N, 0.1414°E)
Time: 21:09:12
(UTC+00:00)
Language:

Terra - Orbit

View from above orbital plane
View from above orbital plane
View from above satellite
View from above satellite

Ground track
Ground track

The orbit data is extracted from the following two-line orbital elements,

1 25994U 99068A   20263.52235218 -.00000845 +00000-0 -17760-3 0  9995
2 25994 098.2066 336.4701 0001501 100.1336 260.0022 14.57109596104012
Epoch (UTC): 19 September 2020 12:32:11
Eccentricity: 0.0001501
inclination: 98.2066°
perigee height: 701 km
apogee height: 703 km
right ascension of ascending node: 336.4701°
argument of perigee: 100.1336°
revolutions per day: 14.57109596
mean anomaly at epoch: 260.0022°
orbit number at epoch: 10401

The dashed part of the orbit path shows where the satellite is in the earth's shadow,  

DLR